Погода в Бхилаи

Индия     21°13′12″N   81°22′48″E
темп.,
°C
ветер,
м/с
пор.,
м/с
влажн.,
%
обл.,
%
осадки,
мм/ч
давл.,
гПа
погр.,
м
1 марта, пн
пн123:30+25юз01230 0.0 101124
02:30+23юз11270 0.0 100923
05:30+21ссв12290 0.0 101123
08:30+27ююв11200 0.0 1013226
11:30+35в22140 0.0 10131308
14:30+36зсз23120 0.0 10103442
17:30+34всв11140 0.0 100932
20:30+29юв23170 0.0 101224
2 марта, вт
вт223:30+26з34210 0.0 101261
02:30+24сз23230 0.0 101024
05:30+21ссв22230 0.0 101123
08:30+27ссв46180 0.0 1014385
11:30+34ссв45110 0.0 10131521
14:30+37сз3590 0.0 10093092
17:30+34ююв22100 0.0 100827
20:30+28сз34130 0.0 101125
3 марта, ср
ср323:30+24св34140 0.0 101145
02:30+22ссв34160 0.0 101131
05:30+19св22170 0.0 101123
08:30+25св35120 0.0 1015317
11:30+33св3470 0.0 10131163
14:30+36сз2360 0.0 10092373
17:30+33всв0180 0.0 100824
20:30+27юв2290 0.0 101124
4 марта, чт
чт423:30+23ссз34110 0.0 101131
02:30+20св12130 0.0 101123
05:30+18всв12140 0.0 101123
08:30+25всв22100 0.0 1014259
11:30+34в2270 0.0 10131018
14:30+37зсз1350 0.0 10082789
17:30+34юз1170 0.0 100824
20:30+28ю2270 0.0 101024
5 марта, пт
пт523:30+25зюз4580 0.0 101046
02:30+21ююз22100 0.0 100923
05:30+20юз48120 0.0 1010135
08:30+26зюз711340 0.0 1013440
11:30+36зюз67140 0.0 10121432
14:30+38зюз7880 0.0 10073763
17:30+35зюз4790 0.0 1006218
20:30+28юз45110 0.0 100961